Find Astrocast-0404

NORAD ID: 55112 Int'l Des: 2023-001 Owner: ACAST Country: CH operational
LEOCIRCULARRETROGRADESSO

Live Position

Loading 3D Globe...

About Astrocast-0404

Description loading...

Upcoming Passes

Passes for default location (London). Set your location on the main map for personalized predictions.

Altitude History

Loading altitude history...

Two-Line Element Set

1 55112U 23001DH 26107.21855033 .00003775 00000-0 14578-3 0 9993
2 55112 97.5646 200.4466 0006514 201.7646 158.3316 15.26887824135228
Epoch: Apr 17, 2026 • Age: 10 hours

Current Status

Altitude 494.1 km
Velocity 7.62 km/s
Sub-Earth Point 34.42°N, 127.41°E
Launch Date Jan 3, 2023
Age 3.2 years
Type other

Technical Details

Classification Payload
Mass 4.50 kg
Dry Mass 4.50 kg
Total Mass 4.50 kg
Length 0.30 m
Diameter 0.10 m
Span 0.30 m
Shape Box
Manufacturer ACAST
Bus Type Cubesat 3U
Phase Status In Orbit
Owner/State ACAST/CH

Most Searched